Location: Arrington
(35.8681°N, 86.7092°W)
Time: 16:12:05
(UTC+00:00)

Meteor 1-14 Rocket - Pass Details

Date: 23 November 2019
Orbit: 834 x 918 km, 81.3° (Epoch: 13 December)

Event Time Altitude Azimuth Distance (km) Brightness Sun altitude
Rises 00:35:30 0° 350° (N) 3,564 7.5 -24.0°
Reaches altitude 10° 00:37:59 10° 350° (N) 2,618 6.8 -24.5°
Maximum altitude 00:43:59 86° 262° (W) 921 4.3 -25.7°
Drops below altitude 10° 00:49:53 10° 175° (S) 2,574 6.7 -26.9°
Sets 00:52:19 0° 175° (S) 3,501 7.4 -27.4°
